sat.trackr.live / text

‹ back to catalog

LEMUR-2-JK0903EM1407

NORAD 58336 · 2023-174CJ

PAYLOAD ACTIVE UNKNOWN

§ Identity

Operator
Country
US
Launch date
2023-11-11
Launch site
AFWTR
Launch vehicle
Mass (kg)
RCS (m²)

Purposes: earth_obs

External: N2YO · Heavens-Above · Gunter

§ Orbital elements

Epoch: 2026-09-19T05:20:19.281696Z

Period
92.53 min
Inclination
97.3891°
Eccentricity
0.0004866
Mean motion
15.56314355 rev/d
Perigee alt
395.0 km
Apogee alt
401.6 km
Semi-major
6,776.5 km
B*
3.5199e-4
RAAN
355.6486°
Arg perigee
128.2371°
Mean anomaly
231.9322°
Rev number
16,033

§ Raw data

LEMUR-2-JK0903EM14071 58336U 23174CJ  26262.22244539  .00024711  00000+0  35199-3 0  99952 58336  97.3891 355.6486 0004866 128.2371 231.9322 15.56314355160332

JSON: /api/v1/satellites/58336 · /tle

For live sub-satellite position, see the globe view (requires WebGL).

§ Visibility from observer

Set your observer location to see the next 7 days of passes ≥ 10°. The values pass through the URL so the page stays shareable.

No JS? Fill the form by hand. The geolocation button needs JavaScript.

§ Radio — SatNOGS DB

ModeDescriptionDownlinkUplink
GMSK Mode U - GMSK 402.790 MHz

1 transmitter · refreshed weekly from db.satnogs.org